PBO Station Position Time Series. Reference Frame : NAM14
Format Version,1.1.1
4-character ID,P181
Station name,MillerKnoxCN2005
Begin Date, 2005-02-02
End Date, 2023-06-26
Release Date, 2023-06-27
Reference position, 37.9145455397 North Latitude, -122.3767566960 East Longitude, 72.20782 meters elevation,
Date, North (mm), East (mm), Vertical (mm), North Std. Deviation (mm), East Std. Deviation (mm),              Vertical Std. Deviation (mm), Quality,
2005-02-02,0.00, 0.00, 0.00, 1.98, 1.59, 7.27, repro,
2005-02-03,-0.31, 0.76, 0.84, 2.04, 1.62, 7.43, repro,
2005-02-04,0.34, 0.63, 2.74, 1.99, 1.60, 7.32, repro,
2005-02-05,1.55, -0.68, 1.66, 1.98, 1.60, 7.25, repro,
2005-02-06,1.30, -0.16, 3.44, 2.00, 1.58, 7.25, repro,
2005-02-07,1.24, 0.07, -6.02, 1.96, 1.58, 7.19, repro,
2005-02-08,0.07, 0.91, 1.59, 2.01, 1.63, 7.41, repro,
2005-02-09,0.91, 0.50, 5.99, 2.02, 1.65, 7.46, repro,
2005-02-10,0.06, -0.42, 5.16, 1.98, 1.58, 7.18, repro,
2005-02-11,0.06, 0.09, 4.75, 1.97, 1.57, 7.19, repro,
2005-02-12,1.03, -1.08, 8.76, 1.98, 1.58, 7.21, repro,
2005-02-13,0.16, -0.40, 13.35, 1.98, 1.58, 7.22, repro,
2005-02-14,0.63, 0.63, 2.80, 1.99, 1.59, 7.29, repro,
2005-02-15,1.12, 0.27, -25.45, 2.00, 1.60, 7.35, repro,
2005-02-16,0.96, 0.50, -27.92, 2.01, 1.59, 7.29, repro,
2005-02-17,0.24, -0.44, -12.30, 2.05, 1.61, 7.41, repro,
2005-02-18,0.15, 0.15, -24.49, 2.00, 1.59, 7.29, repro,
2005-02-19,-0.31, -0.48, -23.47, 2.00, 1.59, 7.29, repro,
2005-02-20,-0.17, -0.28, -12.83, 2.00, 1.60, 7.31, repro,
2005-02-21,-1.27, -1.26, -8.29, 2.18, 1.78, 8.05, repro,
2005-02-22,-1.02, -1.05, -16.24, 2.04, 1.63, 7.55, repro,
2005-02-23,-1.21, 0.28, 4.20, 2.03, 1.60, 7.32, repro,
2005-02-24,-1.10, 0.70, 2.33, 2.04, 1.60, 7.36, repro,
2005-02-25,-0.80, 0.25, 4.25, 2.05, 1.60, 7.42, repro,
2005-02-26,-0.65, 0.22, 7.89, 2.06, 1.61, 7.39, repro,
2005-02-27,-0.66, -0.20, -12.07, 2.04, 1.59, 7.35, repro,
2005-02-28,-0.23, 0.14, -13.82, 2.04, 1.59, 7.35, repro,
2005-03-01,0.14, 0.21, -19.05, 2.05, 1.59, 7.34, repro,
2005-03-02,1.09, 0.37, -24.80, 2.05, 1.60, 7.40, repro,
2005-03-03,1.88, 1.43, -19.97, 2.05, 1.61, 7.42, repro,
2005-03-04,1.19, 0.74, -22.53, 2.10, 1.61, 7.49, repro,
2005-03-05,2.06, 0.22, -23.22, 2.04, 1.59, 7.33, repro,
2005-03-06,0.38, 0.57, -24.04, 2.04, 1.59, 7.33, repro,
2005-03-07,0.52, 1.55, -6.84, 2.05, 1.59, 7.36, repro,
2005-03-08,1.25, 1.79, -3.40, 2.16, 1.68, 7.71, repro,
2005-03-09,1.32, 1.82, -3.17, 2.08, 1.63, 7.52, repro,
2005-03-10,0.15, 1.31, 5.28, 2.05, 1.59, 7.33, repro,
2005-03-11,-0.24, 0.67, 5.70, 2.04, 1.59, 7.33, repro,
2005-03-12,-0.31, 1.39, -7.83, 2.05, 1.60, 7.39, repro,
2005-03-13,0.83, 1.03, -9.34, 2.06, 1.60, 7.41, repro,
2005-03-14,0.21, 0.84, -9.90, 2.11, 1.63, 7.43, repro,
2005-03-15,-0.05, 0.54, -5.08, 2.06, 1.61, 7.43, repro,
2005-03-16,-0.06, 0.88, -8.39, 2.08, 1.63, 7.57, repro,
2005-03-17,-0.27, 0.17, -6.88, 2.07, 1.60, 7.49, repro,
2005-03-18,0.12, 1.22, -8.63, 2.06, 1.60, 7.46, repro,
2005-03-19,1.58, 1.85, -13.70, 2.09, 1.61, 7.47, repro,
2005-03-20,3.13, 2.47, 11.36, 2.07, 1.60, 7.46, repro,
2005-03-21,-0.87, 0.23, -4.59, 2.05, 1.58, 7.34, repro,
2005-03-22,-2.22, 0.59, -26.57, 2.05, 1.59, 7.37, repro,
2005-03-23,-2.11, 0.40, -24.25, 2.06, 1.60, 7.45, repro,
2005-03-24,-1.58, 0.26, -10.14, 2.05, 1.60, 7.43, repro,
2005-03-25,-1.58, 1.44, -3.52, 2.05, 1.58, 7.30, repro,
2005-03-26,-2.16, 0.79, -0.26, 2.04, 1.58, 7.32, repro,
2005-03-27,-2.68, 0.14, -0.10, 2.05, 1.59, 7.37, repro,
2005-03-28,-1.78, 1.02, -9.33, 2.05, 1.58, 7.32, repro,
2005-03-29,-1.59, 2.88, -11.48, 2.07, 1.64, 7.50, repro,
2005-03-30,-0.47, 0.52, -0.80, 2.05, 1.60, 7.37, repro,
2005-03-31,-0.61, 0.37, -3.62, 2.11, 1.61, 7.54, repro,
2005-04-01,-1.03, 0.65, -8.74, 2.04, 1.58, 7.31, repro,
2005-04-02,0.17, -0.12, -3.22, 2.05, 1.59, 7.33, repro,
2005-04-03,-0.72, 0.86, 5.65, 2.11, 1.60, 7.70, repro,
2005-04-04,-1.86, 1.04, -14.97, 2.13, 1.60, 7.72, repro,
2005-04-05,-1.08, 0.57, -5.75, 2.10, 1.58, 7.64, repro,
2005-04-06,-0.75, 0.60, -1.14, 2.16, 1.65, 7.93, repro,
2005-04-07,1.62, 3.66, 36.75, 5.80, 3.97, 20.12, repro,
2005-04-09,5.54, 1.97, 10.66, 11.89, 8.38, 55.04, repro,
2005-04-10,-2.84, 0.95, 12.74, 2.63, 2.32, 11.16, repro,
2005-04-11,-2.26, 1.38, 0.71, 2.15, 1.62, 7.83, repro,
2005-04-12,-2.25, 0.44, 0.22, 2.09, 1.59, 7.63, repro,
2005-04-13,-1.79, -2.28, -1.68, 2.15, 1.60, 7.75, repro,
2005-04-14,-0.43, 0.03, -4.47, 2.20, 1.66, 7.67, repro,
2005-04-15,-1.38, 0.19, -0.58, 2.12, 1.62, 7.57, repro,
2005-04-16,-1.84, -0.27, -1.34, 2.14, 1.63, 7.87, repro,
2005-04-17,-2.54, 0.82, 3.47, 2.06, 1.62, 7.41, repro,
2005-04-18,-1.58, -0.94, -1.52, 2.10, 1.64, 7.40, repro,
2005-04-19,-1.11, 0.80, 2.92, 2.06, 1.59, 7.29, repro,
2005-04-20,-1.11, 0.94, 2.66, 2.25, 1.66, 8.07, repro,
2005-04-21,-1.87, 0.36, -3.11, 2.12, 1.60, 7.64, repro,
2005-04-22,-2.49, 0.23, -1.39, 2.12, 1.62, 7.51, repro,
2005-04-23,-1.01, -0.05, -6.12, 2.07, 1.60, 7.40, repro,
2005-04-24,-1.94, -0.12, 4.48, 2.09, 1.59, 7.56, repro,
2005-04-25,-1.32, 0.60, -3.71, 2.11, 1.60, 7.66, repro,
2005-04-26,-2.04, -0.05, -3.73, 2.11, 1.60, 7.65, repro,
2005-04-27,-2.91, -0.79, -7.17, 2.07, 1.59, 7.34, repro,
2005-04-28,-2.23, -0.84, -18.33, 2.09, 1.63, 7.51, repro,
2005-04-29,-1.96, -1.25, -19.47, 2.05, 1.58, 7.25, repro,
2005-04-30,-2.13, -0.04, -1.70, 2.20, 1.67, 7.89, repro,
2005-05-01,-2.50, 0.11, -1.18, 2.10, 1.59, 7.63, repro,
2005-05-02,-1.74, 0.42, 3.37, 2.06, 1.58, 7.32, repro,
2005-05-03,-1.33, 0.36, -3.34, 2.07, 1.62, 7.54, repro,
2005-05-04,-2.36, 0.04, -5.79, 2.04, 1.58, 7.33, repro,
2005-05-05,-2.88, 0.82, -16.24, 2.03, 1.57, 7.26, repro,
2005-05-06,-1.85, -0.89, -15.52, 4.76, 3.30, 15.83, repro,
2005-05-07,-4.93, -0.37, 6.17, 6.70, 4.95, 21.80, repro,
2005-05-19,-0.28, 4.37, -42.88, 2.07, 1.64, 7.43, repro,
2005-05-20,1.76, 0.73, -6.42, 2.07, 1.64, 7.48, repro,
2005-05-21,2.52, -0.46, -5.28, 2.08, 1.64, 7.47, repro,
2005-05-22,1.87, 0.33, -10.34, 2.07, 1.64, 7.41, repro,
2005-05-23,1.23, 0.43, -3.38, 2.06, 1.64, 7.43, repro,
2005-05-24,1.84, 0.01, -3.83, 2.05, 1.63, 7.40, repro,
2005-05-25,2.06, -0.29, -4.72, 2.06, 1.63, 7.41, repro,
2005-05-26,2.38, -0.32, -7.58, 2.07, 1.64, 7.46, repro,
2005-05-27,2.36, 0.32, -5.76, 2.08, 1.63, 7.44, repro,
2005-05-28,0.83, -0.04, -5.84, 2.12, 1.70, 7.61, repro,
2005-05-29,1.81, -1.14, -7.21, 2.07, 1.63, 7.41, repro,
2005-05-30,2.16, -0.22, -3.88, 2.08, 1.64, 7.45, repro,
2005-05-31,2.74, -1.74, -2.90, 2.08, 1.64, 7.47, repro,
2005-06-01,-1.39, -3.07, -3.18, 2.06, 1.59, 7.37, repro,
2005-06-02,-4.04, -2.94, 2.62, 2.06, 1.58, 7.34, repro,
2005-06-03,-3.74, -3.18, -1.10, 2.03, 1.58, 7.28, repro,
2005-06-04,-3.03, -3.03, 1.73, 2.04, 1.58, 7.31, repro,
2005-06-05,-2.78, -2.38, -4.15, 2.09, 1.65, 7.57, repro,
2005-06-06,-1.86, 1.72, 2.38, 2.06, 1.59, 7.37, repro,
2005-06-07,-2.91, 1.18, -6.34, 2.05, 1.58, 7.33, repro,
2005-06-08,-3.08, 2.18, -1.67, 2.04, 1.59, 7.33, repro,
2005-06-09,-3.29, 2.37, -1.58, 2.06, 1.61, 7.39, repro,
2005-06-10,-2.86, 2.40, 2.50, 2.10, 1.65, 7.59, repro,
2005-06-11,-4.56, 0.92, -2.14, 2.10, 1.66, 7.60, repro,
2005-06-12,-1.44, 3.37, -3.15, 2.16, 1.68, 7.70, repro,
2005-06-13,-1.82, 3.72, 0.89, 2.16, 1.68, 7.69, repro,
2005-06-14,-1.97, 3.57, -0.82, 2.13, 1.67, 7.65, repro,
2005-06-15,-1.11, 4.18, 1.87, 2.05, 1.59, 7.33, repro,
2005-06-16,-3.16, 1.51, 3.72, 2.15, 1.61, 7.55, repro,
2005-06-17,-1.40, 3.87, 5.00, 2.14, 1.61, 7.50, repro,
2005-06-18,-2.64, 3.58, 0.40, 2.05, 1.59, 7.35, repro,
2005-06-19,-3.70, 3.24, -1.00, 2.07, 1.64, 7.48, repro,
2005-06-20,-0.92, 3.51, -2.60, 2.05, 1.59, 7.35, repro,
2005-06-21,-0.69, 2.18, -3.44, 2.05, 1.59, 7.33, repro,
2005-06-22,-1.32, 3.12, -2.69, 2.06, 1.59, 7.33, repro,
2005-06-23,-2.19, 3.14, 1.40, 2.12, 1.62, 7.49, repro,
2005-06-24,-1.83, 3.00, 6.52, 2.04, 1.58, 7.29, repro,
2005-06-25,-1.83, 2.54, 4.04, 2.04, 1.57, 7.29, repro,
2005-06-26,-1.71, 4.00, 0.16, 2.11, 1.62, 7.48, repro,
2005-06-27,-1.60, 2.31, 4.50, 2.13, 1.62, 7.50, repro,
2005-06-28,-1.76, 3.52, 5.42, 2.06, 1.58, 7.31, repro,
2005-06-29,-0.87, 2.88, 2.13, 2.02, 1.57, 7.22, repro,
2005-06-30,-1.78, 3.48, 3.21, 2.04, 1.58, 7.32, repro,
2005-07-01,-2.20, 3.58, 5.17, 2.03, 1.57, 7.27, repro,
2005-07-02,-1.63, 2.73, -0.21, 2.03, 1.57, 7.20, repro,
2005-07-03,-1.79, 2.13, 4.56, 2.04, 1.58, 7.26, repro,
2005-07-04,-1.60, 2.72, 4.49, 2.05, 1.59, 7.32, repro,
2005-07-05,-1.98, 2.63, -0.98, 2.03, 1.58, 7.28, repro,
2005-07-06,-1.21, 2.81, -3.54, 2.03, 1.58, 7.30, repro,
2005-07-07,-0.36, 1.04, 1.83, 2.09, 1.60, 7.32, repro,
2005-07-08,-1.94, 2.91, 2.81, 2.07, 1.64, 7.38, repro,
2005-07-09,-2.66, 1.04, 7.73, 2.04, 1.59, 7.29, repro,
2005-07-10,-3.91, 3.27, 7.85, 2.15, 1.69, 7.77, repro,
2005-07-11,-2.10, 4.12, -0.37, 2.04, 1.60, 7.36, repro,
2005-07-12,-1.60, 2.10, 0.44, 2.03, 1.58, 7.28, repro,
2005-07-13,-2.21, 2.61, 4.10, 2.03, 1.58, 7.22, repro,
2005-07-14,-2.70, 4.67, 4.44, 2.07, 1.63, 7.42, repro,
2005-07-15,-2.50, 3.84, 7.18, 2.02, 1.58, 7.25, repro,
2005-07-16,-1.46, 3.59, -1.44, 2.04, 1.58, 7.27, repro,
2005-07-17,-2.38, 2.21, 3.33, 2.04, 1.59, 7.32, repro,
2005-07-18,-5.45, 0.04, 11.29, 2.04, 1.58, 7.28, repro,
2005-07-19,-3.04, -1.70, 11.49, 2.03, 1.58, 7.23, repro,
2005-07-20,-3.38, -0.56, 7.87, 2.04, 1.58, 7.28, repro,
2005-07-21,-3.25, 1.33, 11.00, 2.03, 1.58, 7.28, repro,
2005-07-22,-4.42, 0.08, 16.38, 2.05, 1.59, 7.33, repro,
2005-07-23,-4.67, 0.19, 12.85, 2.04, 1.57, 7.29, repro,
2005-07-24,-3.30, 0.07, 12.91, 2.06, 1.61, 7.42, repro,
2005-07-25,-2.54, 0.35, 11.65, 2.07, 1.62, 7.43, repro,
2005-07-26,-4.44, -0.05, 10.18, 2.10, 1.68, 7.58, repro,
2005-07-27,-3.47, 0.48, 7.67, 2.11, 1.67, 7.58, repro,
2005-07-28,-4.11, 0.53, 10.63, 2.13, 1.70, 7.73, repro,
2005-07-29,-1.51, -0.19, 4.99, 2.08, 1.61, 7.49, repro,
2005-07-30,-2.30, -0.51, 9.66, 2.06, 1.61, 7.42, repro,
2005-07-31,-1.98, -0.35, 10.21, 2.05, 1.61, 7.39, repro,
2005-08-01,-0.43, 0.34, 7.85, 2.07, 1.61, 7.43, repro,
2005-08-02,-2.12, -0.32, 11.37, 2.07, 1.61, 7.45, repro,
2005-08-03,-1.45, 0.77, 12.31, 2.06, 1.59, 7.38, repro,
2005-08-04,-3.53, 0.72, 8.68, 2.03, 1.58, 7.28, repro,
2005-08-05,-2.58, 0.44, 4.97, 2.04, 1.58, 7.27, repro,
2005-08-06,-1.87, -0.37, 7.13, 2.02, 1.57, 7.20, repro,
2005-08-07,-1.43, 0.01, 4.97, 2.03, 1.57, 7.21, repro,
2005-08-08,-2.11, -1.12, 3.62, 2.05, 1.59, 7.34, repro,
2005-08-09,-2.56, -0.68, 8.36, 2.09, 1.64, 7.47, repro,
2005-08-10,-3.18, 0.52, -0.47, 2.04, 1.58, 7.25, repro,
2005-08-11,-1.83, 0.44, 5.25, 2.12, 1.70, 7.59, repro,
2005-08-12,-2.15, -0.15, 8.29, 2.11, 1.68, 7.55, repro,
2005-08-13,-2.26, -0.84, 5.29, 2.08, 1.62, 7.43, repro,
2005-08-14,-2.02, -0.53, 8.78, 2.28, 1.71, 8.08, repro,
2005-08-15,-2.07, -0.09, 8.99, 2.21, 1.68, 7.79, repro,
2005-08-16,-2.61, 0.09, 6.52, 2.08, 1.65, 7.39, repro,
2005-08-17,-2.30, -1.25, 13.08, 2.09, 1.64, 7.49, repro,
2005-08-18,-2.56, 0.78, 7.71, 2.04, 1.58, 7.26, repro,
2005-08-19,-1.32, -0.25, 8.74, 2.05, 1.59, 7.36, repro,
2005-08-20,-0.63, -0.15, 7.57, 2.14, 1.64, 7.58, repro,
2005-08-21,-1.21, 0.19, 10.88, 2.10, 1.64, 7.51, repro,
2005-08-22,-1.53, -0.33, 10.30, 2.05, 1.59, 7.31, repro,
2005-08-23,-0.30, -0.70, 8.43, 2.07, 1.59, 7.35, repro,
2005-08-24,-1.65, -0.27, 6.42, 2.05, 1.58, 7.30, repro,
2005-08-25,-0.51, -0.55, 9.55, 2.09, 1.64, 7.50, repro,
2005-08-26,-2.32, 0.37, 10.01, 2.04, 1.59, 7.29, repro,
2005-08-27,-1.23, -0.00, 7.02, 2.12, 1.61, 7.41, repro,
2005-08-28,-1.13, -0.51, 7.38, 2.05, 1.59, 7.29, repro,
2005-08-29,-1.35, -0.44, 9.33, 2.09, 1.64, 7.45, repro,
2005-08-30,-1.82, -0.49, 7.57, 2.10, 1.64, 7.47, repro,
2005-08-31,-1.83, 0.33, 9.79, 2.09, 1.65, 7.48, repro,
2005-09-01,-1.84, -0.16, 1.81, 3.54, 2.87, 13.58, repro,
2006-05-19,1.76, -2.06, 6.27, 4.31, 3.02, 14.39, repro,
2006-05-20,-1.04, -2.21, 3.34, 2.04, 1.59, 7.43, repro,
2006-05-21,0.59, -1.57, 7.71, 2.07, 1.62, 7.48, repro,
2006-05-22,-0.32, -2.78, 7.37, 2.29, 1.75, 8.34, repro,
2006-05-23,-1.12, -2.40, 11.60, 2.07, 1.59, 7.47, repro,
2006-05-24,-0.65, -2.84, 15.95, 2.09, 1.65, 7.63, repro,
2006-05-25,0.08, -0.53, 0.74, 2.15, 1.65, 7.76, repro,
2006-05-26,1.23, -2.24, -0.33, 2.08, 1.63, 7.59, repro,
2006-05-27,-1.16, -0.31, 4.84, 2.03, 1.59, 7.38, repro,
2006-05-28,0.53, -0.72, 4.01, 2.05, 1.60, 7.44, repro,
2006-05-29,-0.09, -1.91, 5.61, 2.06, 1.60, 7.49, repro,
2006-05-30,-0.25, -1.80, 1.19, 2.09, 1.62, 7.59, repro,
2006-05-31,-0.08, -0.94, 0.78, 2.12, 1.67, 7.69, repro,
2006-06-01,-1.05, -2.84, 4.49, 2.07, 1.63, 7.54, repro,
2006-06-02,-1.06, -1.22, 6.80, 2.22, 1.73, 8.01, repro,
2006-06-03,-0.23, -0.18, 6.02, 2.14, 1.65, 7.76, repro,
2006-06-04,0.32, -1.61, 11.34, 2.11, 1.62, 7.64, repro,
2006-06-05,-0.23, -2.92, 7.87, 2.11, 1.61, 7.60, repro,
2006-06-06,-0.51, -1.69, 12.90, 2.10, 1.67, 7.65, repro,
2006-06-07,1.35, -2.59, 0.07, 2.10, 1.62, 7.57, repro,
2006-06-08,-0.99, -1.68, 4.64, 2.05, 1.61, 7.47, repro,
2006-06-09,-0.85, -2.03, 5.83, 2.13, 1.66, 7.72, repro,
2006-06-10,-1.20, -1.73, 3.90, 2.06, 1.60, 7.49, repro,
2006-06-11,-0.72, -1.72, 8.35, 2.08, 1.62, 7.55, repro,
2006-06-12,1.32, -0.88, 9.00, 2.10, 1.63, 7.58, repro,
2006-06-13,0.22, -1.61, 4.36, 2.14, 1.68, 7.76, repro,
2006-06-14,-0.22, -2.09, 5.48, 2.09, 1.63, 7.61, repro,
2006-06-15,-0.06, -0.94, 8.83, 2.05, 1.59, 7.45, repro,
2006-06-16,-0.29, -3.63, 6.39, 2.04, 1.59, 7.41, repro,
2006-06-17,-0.19, -1.28, 10.15, 2.05, 1.60, 7.47, repro,
2006-06-18,-0.28, -2.22, 14.66, 2.16, 1.73, 8.17, repro,
2006-06-19,1.19, -3.58, 6.28, 2.05, 1.65, 7.64, repro,
2006-06-20,0.03, -1.85, 5.76, 2.05, 1.63, 7.61, repro,
2006-06-21,-0.59, -1.35, 5.11, 2.09, 1.64, 7.71, repro,
2006-06-22,-0.99, -1.52, 5.69, 2.07, 1.64, 7.68, repro,
2006-06-23,-0.54, -1.70, 6.79, 2.09, 1.65, 7.77, repro,
2006-06-24,0.38, -1.97, 3.17, 2.06, 1.64, 7.65, repro,
2006-06-25,1.40, -0.86, 3.24, 2.08, 1.69, 7.69, repro,
2006-06-26,-0.54, -1.18, -0.52, 2.25, 1.87, 8.66, repro,
2006-06-27,-0.18, -0.55, 2.74, 2.13, 1.72, 7.89, repro,
2006-06-28,0.26, -0.03, 1.37, 2.07, 1.67, 7.81, repro,
2006-06-29,0.66, -0.65, -4.96, 2.00, 1.62, 7.51, repro,
2006-06-30,-0.14, -0.38, 0.20, 2.03, 1.61, 7.55, repro,
2006-07-01,-0.82, -1.70, 0.77, 2.05, 1.61, 7.59, repro,
2006-07-02,1.00, -0.66, -3.70, 2.07, 1.66, 7.71, repro,
2006-07-03,0.31, -0.98, -6.93, 2.02, 1.60, 7.50, repro,
2006-07-04,-0.76, -0.47, -3.83, 2.04, 1.61, 7.60, repro,
2006-07-05,-0.45, -0.35, -6.85, 2.04, 1.62, 7.64, repro,
2006-07-06,-0.23, -0.07, -12.83, 2.04, 1.59, 7.48, repro,
2006-07-07,-1.20, -0.27, -7.71, 2.03, 1.62, 7.60, repro,
2006-07-08,-1.26, -0.18, -8.77, 2.03, 1.61, 7.59, repro,
2006-07-09,-1.12, 0.02, -4.26, 2.04, 1.61, 7.63, repro,
2006-07-10,-0.99, -0.32, -2.82, 2.06, 1.62, 7.66, repro,
2006-07-11,-0.67, -0.58, -1.03, 2.03, 1.61, 7.60, repro,
2006-07-12,-2.25, 1.43, -5.77, 2.05, 1.63, 7.75, repro,
2006-07-13,-0.46, -0.24, -2.98, 2.04, 1.61, 7.60, repro,
2006-07-14,0.37, 0.75, -2.01, 2.02, 1.60, 7.54, repro,
2006-07-15,-0.78, -0.26, -0.50, 2.06, 1.62, 7.68, repro,
2006-07-16,0.13, 0.86, -0.97, 2.05, 1.62, 7.69, repro,
2006-07-17,-0.55, -1.11, -5.25, 2.07, 1.67, 7.90, repro,
2006-07-18,-1.35, 0.61, 6.69, 1.99, 1.58, 7.40, repro,
2006-07-19,-0.53, -1.34, 0.91, 2.01, 1.64, 7.57, repro,
2006-07-20,-0.50, -0.89, -6.38, 1.98, 1.57, 7.29, repro,
2006-07-21,-0.19, 0.85, -5.92, 1.98, 1.57, 7.28, repro,
2006-07-23,-0.74, 0.55, 5.64, 1.97, 1.55, 7.20, repro,
2006-07-24,-0.79, -0.50, -1.19, 1.97, 1.57, 7.26, repro,
2006-07-25,0.80, -0.73, 2.83, 1.99, 1.57, 7.28, repro,
2006-07-26,-1.21, -0.75, 1.60, 1.98, 1.56, 7.24, repro,
2006-07-27,-1.06, -0.46, 0.99, 1.96, 1.55, 7.19, repro,
2006-07-28,0.61, 0.51, -2.75, 1.96, 1.56, 7.24, repro,
2006-07-29,0.11, -1.17, -7.85, 1.96, 1.56, 7.26, repro,
2006-07-30,1.55, -0.72, -0.67, 2.03, 1.63, 7.51, repro,
2006-07-31,0.22, 0.30, 9.37, 1.98, 1.58, 7.30, repro,
2006-08-01,-0.04, -0.05, 1.75, 1.97, 1.56, 7.20, repro,
2006-08-02,0.02, -0.60, -0.95, 1.98, 1.60, 7.46, repro,
2006-08-03,-0.60, 0.38, -3.07, 2.00, 1.61, 7.52, repro,
2006-08-04,-0.45, -1.39, 1.95, 2.08, 1.65, 7.75, repro,
2006-08-05,-0.14, -0.22, -5.85, 2.04, 1.67, 7.72, repro,
2006-08-06,-0.83, -0.56, -8.61, 2.01, 1.61, 7.55, repro,
2006-08-07,-1.55, -1.25, -3.02, 2.01, 1.62, 7.58, repro,
2006-08-08,-0.48, -0.06, -1.49, 2.05, 1.65, 7.71, repro,
2006-08-09,0.71, -0.70, -3.72, 2.00, 1.59, 7.44, repro,
2006-08-10,1.25, -0.22, -0.02, 1.97, 1.57, 7.30, repro,
2006-08-11,-0.59, -0.13, 3.16, 1.97, 1.57, 7.25, repro,
2006-08-12,-0.69, -1.03, 0.67, 1.98, 1.57, 7.26, repro,
2006-08-13,-0.90, -0.61, 1.54, 1.97, 1.56, 7.25, repro,
2006-08-14,-0.47, 0.01, 4.90, 2.02, 1.62, 7.46, repro,
2006-08-15,-0.77, -0.59, 0.45, 2.10, 1.66, 7.69, repro,
2006-08-16,-1.13, -0.49, 2.16, 1.97, 1.57, 7.26, repro,
2006-08-17,0.46, -0.41, -2.05, 1.98, 1.57, 7.26, repro,
2006-08-18,-0.88, 0.71, 1.29, 2.05, 1.66, 7.56, repro,
2006-08-19,-0.01, -0.92, -2.08, 1.96, 1.57, 7.26, repro,
2006-08-20,-0.47, -0.28, 3.97, 1.97, 1.58, 7.31, repro,
2006-08-21,-0.78, -0.57, -3.09, 1.96, 1.59, 7.25, repro,
2006-08-22,0.41, -0.77, -2.33, 1.96, 1.59, 7.27, repro,
2006-08-23,0.04, -0.37, 3.70, 1.99, 1.61, 7.38, repro,
2006-08-24,0.26, -0.40, 2.30, 1.97, 1.60, 7.33, repro,
2006-08-25,-0.51, -0.47, 7.00, 2.02, 1.64, 7.61, repro,
2006-08-26,-1.03, -1.22, 4.36, 2.03, 1.66, 7.67, repro,
2006-08-27,-0.60, -1.13, 0.61, 2.03, 1.67, 7.63, repro,
2006-08-28,-0.57, -0.78, -3.05, 2.04, 1.69, 7.76, repro,
2006-08-29,-0.70, -0.99, -0.86, 2.04, 1.69, 7.74, repro,
2006-08-30,-0.72, -1.50, -0.43, 2.12, 1.72, 7.97, repro,
2006-08-31,-0.16, -1.25, -1.44, 2.04, 1.68, 7.73, repro,
2006-09-01,-1.98, -1.48, 0.20, 2.11, 1.71, 7.92, repro,
2006-09-02,-0.18, -1.00, -5.28, 2.04, 1.69, 7.73, repro,
2006-09-03,-0.23, -1.04, -1.27, 2.05, 1.70, 7.79, repro,
2006-09-04,0.76, -0.94, -4.95, 2.10, 1.72, 7.91, repro,
2006-09-05,-0.05, -0.87, -6.62, 2.11, 1.72, 7.91, repro,
2006-09-06,-0.27, -0.91, -0.63, 2.04, 1.68, 7.70, repro,
2006-09-07,-1.30, -1.27, 7.32, 2.09, 1.73, 8.01, repro,
2006-09-08,-0.63, -1.79, 0.38, 2.08, 1.74, 7.98, repro,
2006-09-09,-0.09, -1.95, -0.47, 2.01, 1.65, 7.50, repro,
2006-09-10,-0.27, -2.06, -1.41, 2.01, 1.65, 7.52, repro,
2006-09-11,-0.58, -1.56, 2.14, 2.03, 1.64, 7.48, repro,
2006-09-12,0.00, -1.69, -0.64, 2.02, 1.65, 7.53, repro,
2006-09-13,0.46, -0.74, 2.52, 2.01, 1.64, 7.46, repro,
2006-09-14,-0.18, -2.43, 3.87, 2.08, 1.67, 7.65, repro,
2006-09-15,-2.34, -2.16, 0.64, 2.04, 1.63, 7.47, repro,
2006-09-16,0.36, -2.48, 0.74, 1.99, 1.61, 7.37, repro,
2006-09-17,-0.59, -1.37, 0.99, 1.99, 1.60, 7.35, repro,
2006-09-18,-1.29, -0.63, 4.45, 2.00, 1.61, 7.37, repro,
2006-09-19,-0.28, -1.54, -0.95, 2.17, 1.77, 8.21, repro,
2006-09-20,-0.86, -1.26, -0.73, 1.99, 1.61, 7.38, repro,
2006-09-21,-0.43, -1.74, 4.85, 2.21, 1.82, 8.38, repro,
2006-09-22,-0.54, -1.93, 5.91, 2.10, 1.68, 7.72, repro,
2006-09-23,-0.70, -0.99, 3.30, 2.22, 1.80, 8.42, repro,
2006-09-24,0.09, -1.44, 1.43, 2.10, 1.66, 7.61, repro,
2006-09-25,-0.06, -0.23, 1.36, 2.11, 1.67, 7.72, repro,
2006-09-26,0.28, -1.87, 1.52, 2.09, 1.69, 7.61, repro,
2006-09-27,0.29, -1.35, -2.76, 2.10, 1.69, 7.61, repro,
2006-09-28,-0.70, -1.40, 0.70, 2.08, 1.67, 7.64, repro,
2006-09-29,-0.50, -0.70, 7.08, 2.04, 1.63, 7.47, repro,
2006-09-30,-1.18, -1.90, 10.06, 2.04, 1.66, 7.67, repro,
2006-10-01,1.72, -1.31, 2.31, 2.01, 1.64, 7.47, repro,
2006-10-02,0.56, -1.99, -0.01, 2.07, 1.70, 7.65, repro,
2006-10-03,-0.40, -2.34, -1.43, 2.10, 1.72, 7.80, repro,
2006-10-04,-6.30, -5.46, -9.73, 3.57, 3.20, 14.11, repro,
2006-10-25,-5.26, -3.33, 0.95, 11.11, 6.75, 48.05, repro,
2006-10-26,-0.20, -2.09, 2.11, 2.01, 1.68, 7.66, repro,
2006-10-27,0.47, -1.52, -3.40, 2.02, 1.71, 7.73, repro,
2006-10-28,-1.23, -1.52, -1.07, 2.19, 1.77, 8.27, repro,
2006-10-29,-0.34, -1.37, 2.88, 1.97, 1.63, 7.48, repro,
2006-10-30,-0.41, -1.51, 2.29, 1.95, 1.61, 7.40, repro,
2006-10-31,-0.71, -1.21, 4.38, 1.99, 1.64, 7.58, repro,
2006-11-01,-0.63, -1.49, 0.08, 1.98, 1.64, 7.54, repro,
2006-11-02,0.32, -0.31, 5.46, 2.06, 1.72, 7.84, repro,
2006-11-03,-0.27, -0.24, 4.05, 2.02, 1.67, 7.69, repro,
2006-11-04,0.18, -0.34, -4.91, 2.06, 1.69, 7.79, repro,
2006-11-05,0.14, -0.98, -2.66, 2.04, 1.67, 7.69, repro,
2006-11-06,-0.36, -1.45, -3.37, 1.96, 1.61, 7.45, repro,
2006-11-07,0.91, -1.43, -3.90, 2.12, 1.77, 8.18, repro,
2006-11-08,-0.68, -1.91, 0.85, 2.09, 1.69, 7.96, repro,
2006-11-09,-0.37, -1.51, 1.14, 2.10, 1.74, 8.00, repro,
2006-11-10,-0.33, -1.30, -0.87, 2.02, 1.62, 7.56, repro,
2006-11-11,0.08, -1.55, 2.93, 2.05, 1.67, 7.70, repro,
2006-11-12,-0.55, -1.17, 4.30, 2.10, 1.73, 7.88, repro,
2006-11-13,0.51, -1.48, 3.10, 2.21, 1.81, 8.10, repro,
2006-11-14,0.57, 0.91, 7.93, 1.97, 1.60, 7.40, repro,
2006-11-15,0.20, -0.43, -1.25, 1.94, 1.60, 7.29, repro,
2006-11-16,-1.77, -2.43, 0.44, 1.94, 1.61, 7.31, repro,
2006-11-17,-0.44, -1.12, 2.68, 1.92, 1.59, 7.21, repro,
2006-11-18,-0.73, -1.96, -5.33, 2.07, 1.71, 7.77, repro,
2006-11-19,-0.33, -1.70, -6.16, 1.96, 1.60, 7.33, repro,
2006-11-20,-0.37, -0.20, -3.23, 1.96, 1.61, 7.33, repro,
2006-11-21,1.34, -1.58, -1.99, 1.93, 1.59, 7.24, repro,
2006-11-22,-0.48, -0.84, -1.03, 1.94, 1.60, 7.27, repro,
2006-11-23,0.47, -1.84, -0.71, 2.08, 1.73, 7.99, repro,
2006-11-24,-0.54, -1.64, -0.96, 2.06, 1.70, 7.83, repro,
2006-11-25,-0.49, -0.69, -3.06, 1.99, 1.61, 7.39, repro,
2006-11-26,-0.29, -0.27, 1.34, 1.98, 1.63, 7.44, repro,
2006-11-27,0.74, -2.28, 4.96, 1.97, 1.62, 7.35, repro,
2006-11-28,-0.11, -1.95, -1.69, 1.94, 1.60, 7.27, repro,
2006-11-29,-0.19, -1.28, 0.05, 1.96, 1.61, 7.33, repro,
2006-11-30,0.41, -0.95, -5.94, 1.96, 1.61, 7.36, repro,
2006-12-01,0.48, -0.30, -9.33, 1.96, 1.61, 7.34, repro,
2006-12-02,-0.51, -1.20, -8.69, 1.96, 1.61, 7.35, repro,
2006-12-03,-0.39, -1.25, -4.77, 1.95, 1.61, 7.35, repro,
2006-12-04,-0.28, -1.49, -7.83, 1.98, 1.63, 7.41, repro,
2006-12-05,-1.23, -0.63, -6.43, 1.99, 1.68, 7.51, repro,
2006-12-06,0.45, -1.60, -8.65, 2.01, 1.70, 7.62, repro,
2006-12-07,-0.22, -1.57, -5.73, 1.97, 1.68, 7.47, repro,
2006-12-08,-0.24, -1.58, -0.96, 1.99, 1.69, 7.55, repro,
2006-12-09,-1.42, -1.44, -0.94, 1.97, 1.69, 7.52, repro,
2006-12-10,0.17, -2.15, 0.90, 2.01, 1.68, 7.62, repro,
2006-12-11,-0.48, -2.38, -1.55, 1.98, 1.66, 7.56, repro,
2006-12-12,1.28, -0.55, -13.92, 2.03, 1.71, 7.69, repro,
2006-12-13,0.38, -1.59, -3.63, 1.95, 1.66, 7.44, repro,
2006-12-14,0.17, -1.01, 2.95, 1.93, 1.64, 7.37, repro,
2006-12-15,1.66, -2.13, 0.58, 2.00, 1.70, 7.56, repro,
2006-12-16,-0.26, -2.42, -4.16, 2.04, 1.73, 7.65, repro,
2006-12-17,1.12, -2.90, -9.55, 2.05, 1.77, 8.00, repro,
2006-12-18,-0.47, -0.90, -1.92, 2.13, 1.90, 8.33, repro,
2006-12-19,1.87, -1.68, -6.47, 2.04, 1.82, 7.97, repro,
2006-12-20,0.31, -1.74, -3.55, 2.03, 1.80, 7.67, repro,
2006-12-21,0.11, -1.74, -8.30, 1.97, 1.76, 7.61, repro,
2006-12-22,1.07, -1.90, -3.78, 2.12, 1.89, 8.18, repro,
2006-12-23,-0.60, -1.20, -6.69, 2.02, 1.75, 7.94, repro,
2006-12-24,0.76, -1.68, -6.33, 1.95, 1.65, 7.47, repro,
2006-12-25,-0.63, -0.10, -7.26, 1.96, 1.69, 7.50, repro,
2006-12-26,-0.83, -0.17, -4.94, 2.02, 1.72, 7.72, repro,
2006-12-27,-0.36, -2.99, -2.26, 2.22, 1.96, 8.68, repro,
2006-12-28,0.53, -2.26, -3.34, 2.24, 2.10, 9.00, repro,
2006-12-29,0.82, -6.53, -17.37, 2.02, 1.71, 7.85, repro,
2006-12-30,0.67, -2.63, -4.89, 2.01, 1.73, 7.69, repro,
2006-12-31,0.13, -2.40, -6.64, 2.13, 1.83, 8.16, repro,
2007-01-01,0.05, -1.30, -5.61, 2.09, 1.84, 8.14, repro,
2007-01-02,0.32, -1.85, 2.03, 2.13, 1.93, 8.35, repro,
2007-01-03,0.31, -2.10, 4.50, 1.95, 1.69, 7.62, repro,
2007-01-04,1.14, -0.34, 5.01, 1.95, 1.65, 7.51, repro,
2007-01-05,1.42, -4.08, -4.23, 1.98, 1.70, 7.65, repro,
2007-01-06,0.60, -1.26, -7.24, 2.06, 1.81, 7.89, repro,
2007-01-07,0.29, -1.35, -7.60, 1.97, 1.65, 7.44, repro,
2007-01-08,0.33, -2.24, -8.95, 2.01, 1.71, 7.64, repro,
2007-01-09,-1.05, -1.17, -6.03, 1.97, 1.64, 7.35, repro,
2007-01-10,-0.71, -1.08, 2.67, 2.05, 1.72, 7.65, repro,
2007-01-11,0.32, -2.25, -11.18, 2.03, 1.64, 7.53, repro,
2007-01-12,0.32, -2.34, -7.29, 1.95, 1.60, 7.28, repro,
2007-01-13,0.23, -1.78, -10.42, 1.92, 1.59, 7.18, repro,
2007-01-14,0.41, -1.38, -8.69, 1.90, 1.58, 7.10, repro,